N4YH-13 Weather Reports


time (UTC)temp
F
wind
direction
speed
knots
gust
knots
rain 1hr
in
rain 24hr
in
rain mn
in
humidity
%
barometer
mb
20260504042003 50 61 1.7 4.3 0.00 0.00 0.00 69 1015.5
20260504041803 50 58 1.7 4.3 0.00 0.00 0.00 69 1015.5
20260504041603 50 58 1.7 4.3 0.00 0.00 0.00 69 1015.5
20260504041403 50 54 1.7 4.3 0.00 0.00 0.00 69 1015.5
20260504041204 50 52 1.7 4.3 0.00 0.00 0.00 69 1015.5
20260504041004 50 50 1.7 4.3 0.00 0.00 0.00 69 1015.5
20260504040803 50 53 1.7 4.3 0.00 0.00 0.00 70 1015.5
20260504040603 50 53 1.7 4.3 0.00 0.00 0.00 69 1015.5
20260504040403 50 57 1.7 4.3 0.00 0.00 0.00 69 1015.5
20260504040203 50 60 0.9 3.5 0.00 0.00 0.00 69 1015.4
20260504040004 50 63 0.9 2.6 0.00 0.00 0.00 70 1015.5
20260504035803 50 64 0.9 2.6 0.00 0.00 0.00 69 1015.5
20260504035603 50 69 0.9 2.6 0.00 0.00 0.00 69 1015.5
20260504035403 50 69 0.9 2.6 0.00 0.00 0.00 68 1015.5
20260504035203 51 66 0.9 3.5 0.00 0.00 0.00 69 1015.5
20260504035004 51 63 0.9 5.2 0.00 0.00 0.00 68 1015.5
20260504034804 51 59 0.9 5.2 0.00 0.00 0.00 68 1015.5
20260504034604 51 56 0.9 5.2 0.00 0.00 0.00 68 1015.5
20260504034403 51 55 1.7 5.2 0.00 0.00 0.00 68 1015.5
20260504034203 51 54 1.7 5.2 0.00 0.00 0.00 67 1015.5
20260504034003 51 54 1.7 3.5 0.00 0.00 0.00 67 1015.5
20260504033803 51 56 1.7 3.5 0.00 0.00 0.00 68 1015.5
20260504033604 51 56 1.7 4.3 0.00 0.00 0.00 67 1015.5
20260504033404 51 57 1.7 4.3 0.00 0.00 0.00 67 1015.5
20260504033204 51 58 1.7 4.3 0.00 0.00 0.00 67 1015.5
20260504033003 51 61 1.7 4.3 0.00 0.00 0.00 67 1015.5
20260504032803 51 63 1.7 4.3 0.00 0.00 0.00 67 1015.5
20260504032603 51 67 0.9 4.3 0.00 0.00 0.00 67 1015.5
20260504032403 51 68 1.7 4.3 0.00 0.00 0.00 67 1015.5
20260504032203 51 67 0.9 4.3 0.00 0.00 0.00 66 1015.5
20260504032004 51 66 1.7 4.3 0.00 0.00 0.00 65 1015.5
20260504031804 51 63 1.7 4.3 0.00 0.00 0.00 66 1015.5
20260504031603 51 59 1.7 4.3 0.00 0.00 0.00 66 1015.5
20260504031403 51 56 1.7 5.2 0.00 0.00 0.00 66 1015.5
20260504031203 51 55 1.7 5.2 0.00 0.00 0.00 66 1015.5
20260504031003 51 54 1.7 5.2 0.00 0.00 0.00 66 1015.5
20260504030803 51 53 1.7 5.2 0.00 0.00 0.00 66 1015.5
20260504030604 51 55 1.7 5.2 0.00 0.00 0.00 66 1015.5
20260504030404 51 57 1.7 4.3 0.00 0.00 0.00 66 1015.5
20260504030203 51 57 1.7 4.3 0.00 0.00 0.00 66 1015.3
20260504030003 51 56 1.7 4.3 0.00 0.00 0.00 66 1015.3
20260504025803 51 54 1.7 3.5 0.00 0.00 0.00 66 1015.3
20260504025603 52 54 1.7 4.3 0.00 0.00 0.00 65 1015.4
20260504025404 52 55 1.7 4.3 0.00 0.00 0.00 66 1015.4
20260504025204 52 58 1.7 4.3 0.00 0.00 0.00 66 1015.4
20260504025004 52 61 1.7 4.3 0.00 0.00 0.00 65 1015.4
20260504024803 52 66 1.7 4.3 0.00 0.00 0.00 65 1015.4
20260504024603 52 66 1.7 4.3 0.00 0.00 0.00 64 1015.1
20260504024403 52 63 1.7 4.3 0.00 0.00 0.00 64 1015.1
20260504024203 52 56 1.7 4.3 0.00 0.00 0.00 64 1015.1
20260504024004 52 47 1.7 4.3 0.00 0.00 0.00 64 1015.1
20260504023804 52 42 1.7 4.3 0.00 0.00 0.00 64 1015.1
20260504023603 52 42 2.6 4.3 0.00 0.00 0.00 64 1015.1
20260504023403 52 44 2.6 4.3 0.00 0.00 0.00 63 1015.1
20260504023203 52 45 2.6 4.3 0.00 0.00 0.00 63 1015.0
20260504023003 52 47 2.6 4.3 0.00 0.00 0.00 63 1015.0
20260504022803 52 49 2.6 4.3 0.00 0.00 0.00 63 1015.0
20260504022604 53 50 2.6 4.3 0.00 0.00 0.00 63 1015.0
20260504022404 53 49 2.6 4.3 0.00 0.00 0.00 63 1015.0
20260504022203 53 50 2.6 4.3 0.00 0.00 0.00 62 1015.0
20260504022003 53 50 2.6 4.3 0.00 0.00 0.00 62 1015.0
20260504021803 53 50 2.6 4.3 0.00 0.00 0.00 62 1015.0
20260504021603 53 52 1.7 4.3 0.00 0.00 0.00 62 1015.0
20260504021403 53 56 1.7 4.3 0.00 0.00 0.00 63 1015.0
20260504021204 53 57 1.7 4.3 0.00 0.00 0.00 62 1015.0
20260504021004 53 59 1.7 4.3 0.00 0.00 0.00 63 1015.1
20260504020803 53 64 1.7 4.3 0.00 0.00 0.00 62 1015.0
20260504020603 53 65 0.9 2.6 0.00 0.00 0.00 62 1015.0
20260504020403 53 66 0.9 2.6 0.00 0.00 0.00 61 1015.0
20260504020203 54 66 0.9 2.6 0.00 0.00 0.00 62 1015.0
20260504020003 54 66 0.9 2.6 0.00 0.00 0.00 62 1015.0
20260504015804 54 66 0.9 2.6 0.00 0.00 0.00 61 1015.0
20260504015604 54 68 0.9 2.6 0.00 0.00 0.00 61 1015.0
20260504015403 54 69 0.9 2.6 0.00 0.00 0.00 60 1015.0
20260504015203 54 68 1.7 3.5 0.00 0.00 0.00 59 1015.0
20260504015003 54 68 1.7 3.5 0.00 0.00 0.00 60 1015.0
20260504014803 54 67 1.7 5.2 0.00 0.00 0.00 59 1015.0
20260504014604 54 62 1.7 5.2 0.00 0.00 0.00 59 1014.9
20260504014404 54 58 1.7 5.2 0.00 0.00 0.00 59 1014.9
20260504014203 55 59 2.6 5.2 0.00 0.00 0.00 59 1014.9
20260504014003 54 60 2.6 5.2 0.00 0.00 0.00 59 1014.9
20260504013803 54 59 2.6 5.2 0.00 0.00 0.00 59 1014.9
20260504013603 55 61 2.6 5.2 0.00 0.00 0.00 59 1014.9
20260504013403 55 64 2.6 5.2 0.00 0.00 0.00 60 1014.9
20260504013203 55 63 2.6 4.3 0.00 0.00 0.00 60 1014.9
20260504013004 55 62 2.6 4.3 0.00 0.00 0.00 59 1014.9
20260504012803 55 62 2.6 4.3 0.00 0.00 0.00 59 1015.0
20260504012603 55 63 1.7 4.3 0.00 0.00 0.00 59 1014.9
20260504012403 55 63 1.7 3.5 0.00 0.00 0.00 59 1015.0
20260504012203 55 64 1.7 3.5 0.00 0.00 0.00 59 1014.9
20260504012003 55 65 1.7 4.3 0.00 0.00 0.00 58 1014.9
20260504011804 55 63 2.6 4.3 0.00 0.00 0.00 58 1014.9
20260504011604 55 65 2.6 4.3 0.00 0.00 0.00 57 1014.9
20260504011403 55 81 2.6 4.3 0.00 0.00 0.00 57 1014.9
20260504011203 55 101 2.6 4.3 0.00 0.00 0.00 58 1014.9
20260504011003 56 142 2.6 4.3 0.00 0.00 0.00 58 1014.9
20260504010803 56 174 2.6 4.3 0.00 0.00 0.00 57 1014.9
20260504010603 56 185 2.6 4.3 0.00 0.00 0.00 57 1014.9
20260504010404 56 184 1.7 4.3 0.00 0.00 0.00 57 1014.9
20260504010204 56 184 1.7 4.3 0.00 0.00 0.00 56 1014.8
20260504010004 56 185 1.7 4.3 0.00 0.00 0.00 56 1014.8
20260504005803 56 184 1.7 4.3 0.00 0.00 0.00 56 1014.8
20260504005603 56 185 1.7 4.3 0.00 0.00 0.00 56 1014.8
20260504005403 56 185 1.7 4.3 0.00 0.00 0.00 56 1014.8
20260504005203 56 185 1.7 4.3 0.00 0.00 0.00 55 1014.8
20260504005004 56 185 1.7 4.3 0.00 0.00 0.00 55 1014.8
20260504004804 56 184 0.9 4.3 0.00 0.00 0.00 55 1014.9
20260504004603 57 185 0.9 2.6 0.00 0.00 0.00 55 1014.7
20260504004403 57 185 0.9 2.6 0.00 0.00 0.00 55 1014.7
20260504004203 57 185 0.9 1.7 0.00 0.00 0.00 54 1014.7
20260504004003 57 184 0.9 1.7 0.00 0.00 0.00 54 1014.7
20260504003803 57 184 0.9 2.6 0.00 0.00 0.00 53 1014.7
20260504003604 57 184 0.9 2.6 0.00 0.00 0.00 53 1014.7
20260504003404 58 185 0.9 2.6 0.00 0.00 0.00 53 1014.7
20260504003203 58 185 0.9 3.5 0.00 0.00 0.00 53 1014.4
20260504003003 58 185 0.9 3.5 0.00 0.00 0.00 53 1014.4
20260504002803 58 184 0.9 3.5 0.00 0.00 0.00 52 1014.4
20260504002603 58 185 0.9 3.5 0.00 0.00 0.00 52 1014.4
20260504002403 58 185 0.9 3.5 0.00 0.00 0.00 52 1014.4
20260504002204 58 185 0.9 2.6 0.00 0.00 0.00 52 1014.6
20260504002004 59 184 0.0 2.6 0.00 0.00 0.00 51 1014.6
20260504001804 59 184 0.0 0.9 0.00 0.00 0.00 53 1014.6
20260504001603 59 184 0.0 0.9 0.00 0.00 0.00 52 1015.0
20260504001403 59 184 0.0 0.9 0.00 0.00 0.00 52 1015.0
20260504001203 59 185 0.0 1.7 0.00 0.00 0.00 52 1015.0
20260504001004 59 184 0.9 1.7 0.00 0.00 0.00 50 1015.0
20260504000804 59 184 0.9 2.6 0.00 0.00 0.00 49 1015.0
20260504000603 60 184 0.9 3.5 0.00 0.00 0.00 50 1015.0
20260504000403 60 184 0.9 3.5 0.00 0.00 0.00 48 1015.0
20260504000204 60 184 0.9 3.5 0.00 0.00 0.00 49 1014.6
20260504000003 60 185 0.9 3.5 0.00 0.00 0.00 48 1014.6
20260503235803 60 184 0.0 3.5 0.00 0.00 0.00 48 1014.6
20260503235604 60 184 0.0 1.7 0.00 0.00 0.00 48 1014.6
20260503235404 60 184 0.0 1.7 0.00 0.00 0.00 48 1014.7
20260503235203 60 184 0.0 1.7 0.00 0.00 0.00 48 1014.8
20260503235003 61 185 0.0 1.7 0.00 0.00 0.00 47 1014.7
20260503234803 61 185 0.0 1.7 0.00 0.00 0.00 46 1014.7
20260503234603 61 184 0.0 1.7 0.00 0.00 0.00 46 1014.9
20260503234404 61 154 0.9 5.2 0.00 0.00 0.00 46 1014.9
20260503234204 61 141 0.9 5.2 0.00 0.00 0.00 45 1014.9
20260503234003 61 104 0.9 5.2 0.00 0.00 0.00 46 1014.9
20260503233803 61 72 0.9 5.2 0.00 0.00 0.00 45 1014.9
20260503233603 61 58 0.9 5.2 0.00 0.00 0.00 44 1014.9
20260503233403 61 56 0.9 4.3 0.00 0.00 0.00 45 1014.9
20260503233203 61 58 0.9 4.3 0.00 0.00 0.00 45 1014.9
20260503233004 62 59 0.9 4.3 0.00 0.00 0.00 45 1014.9
20260503232803 62 56 0.9 4.3 0.00 0.00 0.00 45 1014.9
20260503232603 62 60 0.9 4.3 0.00 0.00 0.00 44 1014.9
20260503232403 62 57 0.9 4.3 0.00 0.00 0.00 44 1014.9
20260503232203 62 56 0.9 4.3 0.00 0.00 0.00 44 1014.9
20260503232003 62 55 0.9 4.3 0.00 0.00 0.00 43 1014.9
20260503231804 62 59 0.9 3.5 0.00 0.00 0.00 43 1014.9
20260503231604 62 53 0.9 3.5 0.00 0.00 0.00 44 1015.0
20260503231403 62 56 0.9 3.5 0.00 0.00 0.00 44 1015.1
20260503231203 62 50 0.9 5.2 0.00 0.00 0.00 45 1015.0
20260503231003 62 56 0.9 5.2 0.00 0.00 0.00 43 1015.0
20260503230803 62 100 0.9 5.2 0.00 0.00 0.00 42 1015.1
20260503230604 62 170 0.9 5.2 0.00 0.00 0.00 44 1015.0
20260503230404 62 177 1.7 5.2 0.00 0.00 0.00 42 1015.0
20260503230203 62 185 1.7 5.2 0.00 0.00 0.00 43 1015.0
20260503230003 63 185 1.7 5.2 0.00 0.00 0.00 43 1015.0
20260503225803 63 184 1.7 5.2 0.00 0.00 0.00 43 1015.0
20260503225603 63 184 1.7 5.2 0.00 0.00 0.00 44 1015.0
20260503225404 63 184 1.7 5.2 0.00 0.00 0.00 43 1015.0
20260503225204 63 184 1.7 5.2 0.00 0.00 0.00 42 1015.0
20260503225003 63 183 1.7 5.2 0.00 0.00 0.00 43 1015.0
20260503224803 63 178 0.9 5.2 0.00 0.00 0.00 42 1015.0
20260503224603 63 164 0.9 5.2 0.00 0.00 0.00 41 1015.0
20260503224403 63 145 0.9 5.2 0.00 0.00 0.00 41 1015.0
20260503224203 63 107 0.9 5.2 0.00 0.00 0.00 40 1015.0
20260503224003 63 70 0.9 4.3 0.00 0.00 0.00 39 1015.0
20260503223804 63 67 0.9 4.3 0.00 0.00 0.00 39 1015.0
20260503223604 63 60 1.7 4.3 0.00 0.00 0.00 39 1015.0
20260503223404 63 61 1.7 4.3 0.00 0.00 0.00 39 1015.0
20260503223203 63 60 1.7 4.3 0.00 0.00 0.00 39 1015.0
20260503223003 63 60 0.9 4.3 0.00 0.00 0.00 39 1015.0
20260503222803 63 63 0.9 4.3 0.00 0.00 0.00 39 1015.0
20260503222603 63 72 0.9 2.6 0.00 0.00 0.00 41 1015.0
20260503222404 63 71 0.9 3.5 0.00 0.00 0.00 44 1015.1
20260503222204 63 67 1.7 6.1 0.00 0.00 0.00 43 1015.0
20260503222003 63 65 2.6 6.1 0.00 0.00 0.00 42 1015.0
20260503221803 63 58 2.6 6.1 0.00 0.00 0.00 42 1015.0
20260503221603 63 56 2.6 6.1 0.00 0.00 0.00 41 1015.1
20260503221403 63 56 2.6 6.1 0.00 0.00 0.00 39 1015.1
20260503221203 63 55 2.6 7.0 0.00 0.00 0.00 40 1015.1
20260503221004 64 53 1.7 7.0 0.00 0.00 0.00 41 1015.1
20260503220804 64 68 1.7 7.0 0.00 0.00 0.00 42 1015.1
20260503220604 64 84 1.7 7.0 0.00 0.00 0.00 42 1015.1
20260503220403 64 89 1.7 7.0 0.00 0.00 0.00 41 1015.1
20260503220203 64 131 1.7 7.0 0.00 0.00 0.00 41 1015.2
20260503220003 64 166 0.9 4.3 0.00 0.00 0.00 42 1015.2
20260503215803 64 126 0.9 4.3 0.00 0.00 0.00 41 1015.2
20260503215604 64 81 0.9 7.0 0.00 0.00 0.00 42 1015.2
20260503215404 64 103 1.7 7.0 0.00 0.00 0.00 45 1015.2
20260503215203 64 110 1.7 7.0 0.00 0.00 0.00 42 1015.2
20260503215003 64 142 1.7 7.0 0.00 0.00 0.00 42 1015.2
20260503214803 64 131 1.7 7.0 0.00 0.00 0.00 41 1015.2
20260503214603 64 100 2.6 10.4 0.00 0.00 0.00 43 1015.3
20260503214403 64 65 2.6 10.4 0.00 0.00 0.00 42 1015.3
20260503214204 64 56 2.6 10.4 0.00 0.00 0.00 44 1015.3
20260503214004 64 66 2.6 10.4 0.00 0.00 0.00 41 1015.4
20260503213803 64 90 2.6 10.4 0.00 0.00 0.00 41 1015.4
20260503213603 65 128 2.6 7.0 0.00 0.00 0.00 42 1015.4
20260503213403 65 158 2.6 7.0 0.00 0.00 0.00 41 1015.4
20260503213203 65 173 2.6 5.2 0.00 0.00 0.00 41 1015.5
20260503213003 65 172 1.7 6.1 0.00 0.00 0.00 43 1015.5
20260503212804 65 167 1.7 6.1 0.00 0.00 0.00 40 1015.5
20260503212604 65 181 1.7 7.0 0.00 0.00 0.00 40 1015.5
20260503212403 65 175 1.7 7.0 0.00 0.00 0.00 42 1015.5
20260503212203 65 96 1.7 7.0 0.00 0.00 0.00 41 1015.5
20260503212003 65 13 1.7 7.0 0.00 0.00 0.00 44 1015.5
20260503211803 65 44 1.7 7.0 0.00 0.00 0.00 43 1015.5
20260503211603 65 32 1.7 5.2 0.00 0.00 0.00 45 1015.5
20260503211404 65 348 1.7 5.2 0.00 0.00 0.00 42 1015.5
20260503211204 65 323 1.7 4.3 0.00 0.00 0.00 41 1015.5
20260503211003 64 316 1.7 4.3 0.00 0.00 0.00 43 1015.5
20260503210803 64 308 1.7 4.3 0.00 0.00 0.00 46 1015.5
20260503210603 64 353 1.7 4.3 0.00 0.00 0.00 42 1015.4
20260503210403 64 35 1.7 4.3 0.00 0.00 0.00 44 1015.4
20260503210203 64 55 2.6 7.0 0.00 0.00 0.00 43 1015.7
20260503210003 64 57 3.5 7.8 0.00 0.00 0.00 42 1015.7
20260503205804 64 64 3.5 7.8 0.00 0.00 0.00 43 1015.7
20260503205603 64 76 3.5 7.8 0.00 0.00 0.00 42 1015.7
20260503205403 64 96 3.5 7.8 0.00 0.00 0.00 42 1015.7
20260503205203 64 131 2.6 7.8 0.00 0.00 0.00 43 1015.7
20260503205003 64 177 2.6 7.8 0.00 0.00 0.00 44 1015.7
20260503204803 64 187 1.7 6.1 0.00 0.00 0.00 46 1015.7
20260503204603 64 187 1.7 6.1 0.00 0.00 0.00 44 1016.0
20260503204404 64 187 1.7 6.1 0.00 0.00 0.00 46 1016.0
20260503204204 64 187 1.7 6.1 0.00 0.00 0.00 44 1016.0
20260503204003 64 187 0.9 5.2 0.00 0.00 0.00 45 1016.0
20260503203803 64 187 0.9 5.2 0.00 0.00 0.00 46 1016.0
20260503203603 64 187 1.7 5.2 0.00 0.00 0.00 47 1016.0
20260503203403 64 187 1.7 5.2 0.00 0.00 0.00 49 1016.0
20260503203203 64 187 0.9 4.3 0.00 0.00 0.00 53 1016.2
20260503203004 63 187 1.7 4.3 0.00 0.00 0.00 53 1016.2
20260503202803 63 187 1.7 4.3 0.00 0.00 0.00 53 1016.2
20260503202603 63 187 1.7 5.2 0.00 0.00 0.00 53 1016.2
20260503202403 63 187 1.7 5.2 0.00 0.00 0.00 53 1016.2
20260503202203 63 187 1.7 5.2 0.00 0.00 0.00 53 1016.2
20260503202003 63 187 1.7 5.2 0.00 0.00 0.00 53 1016.2
20260503201803 63 187 1.7 5.2 0.00 0.00 0.00 52 1016.2
20260503201604 63 187 1.7 5.2 0.00 0.00 0.00 53 1016.4
20260503201404 63 187 1.7 5.2 0.00 0.00 0.00 53 1016.5
20260503201203 63 187 1.7 5.2 0.00 0.00 0.00 53 1016.5
20260503201003 63 187 1.7 5.2 0.00 0.00 0.00 55 1016.4
20260503200803 63 187 2.6 5.2 0.00 0.00 0.00 55 1016.4
20260503200603 62 187 2.6 5.2 0.00 0.00 0.00 54 1016.5
20260503200403 62 187 2.6 6.1 0.00 0.00 0.00 52 1016.4
20260503200204 62 187 2.6 7.0 0.00 0.00 0.00 55 1016.7
20260503200004 62 187 3.5 7.8 0.00 0.00 0.00 56 1016.7
20260503195803 62 187 3.5 7.8 0.00 0.00 0.00 55 1016.7
20260503195603 62 187 2.6 7.8 0.00 0.00 0.00 56 1016.7
20260503195403 62 187 2.6 7.8 0.00 0.00 0.00 54 1016.7
20260503195203 62 187 2.6 7.8 0.00 0.00 0.00 54 1016.7
20260503195004 62 187 2.6 7.8 0.00 0.00 0.00 57 1016.7
20260503194804 62 187 2.6 7.8 0.00 0.00 0.00 57 1016.7
20260503194603 62 187 3.5 7.8 0.00 0.00 0.00 59 1017.0
20260503194403 61 187 3.5 7.8 0.00 0.00 0.00 55 1017.0
20260503194203 61 187 3.5 7.8 0.00 0.00 0.00 57 1017.0
20260503194003 61 187 2.6 7.8 0.00 0.00 0.00 57 1017.0
20260503193803 61 187 2.6 7.8 0.00 0.00 0.00 58 1017.0
20260503193604 61 187 3.5 7.8 0.00 0.00 0.00 56 1017.0
20260503193403 61 187 3.5 7.8 0.00 0.00 0.00 56 1017.0
20260503193203 61 187 3.5 7.8 0.00 0.00 0.00 56 1017.1
20260503193003 61 187 3.5 7.8 0.00 0.00 0.00 56 1017.1
20260503192803 61 187 3.5 7.8 0.00 0.00 0.00 55 1017.1
20260503192603 61 187 3.5 7.8 0.00 0.00 0.00 55 1017.1
20260503192403 61 185 2.6 5.2 0.00 0.00 0.00 56 1017.1
20260503192204 61 182 2.6 6.1 0.00 0.00 0.00 58 1017.1
20260503192004 61 177 2.6 7.0 0.00 0.00 0.00 55 1017.1
20260503191803 61 176 3.5 8.7 0.00 0.00 0.00 58 1017.1
20260503191603 60 181 3.5 8.7 0.00 0.00 0.00 57 1017.3
20260503191403 60 183 4.3 8.7 0.00 0.00 0.00 58 1017.2
20260503191203 60 184 3.5 8.7 0.00 0.00 0.00 57 1017.3
20260503191003 60 188 3.5 8.7 0.00 0.00 0.00 58 1017.2
20260503190803 60 189 3.5 8.7 0.00 0.00 0.00 56 1017.2
20260503190604 60 187 3.5 8.7 0.00 0.00 0.00 57 1017.3
20260503190404 60 187 3.5 8.7 0.00 0.00 0.00 58 1017.3
20260503190203 59 183 4.3 8.7 0.00 0.00 0.00 58 1017.4
20260503190003 59 181 4.3 8.7 0.00 0.00 0.00 57 1017.4
20260503185803 59 178 4.3 8.7 0.00 0.00 0.00 56 1017.4
20260503185603 59 176 4.3 8.7 0.00 0.00 0.00 55 1017.4
20260503185403 60 175 4.3 8.7 0.00 0.00 0.00 55 1017.4
20260503185204 60 177 4.3 8.7 0.00 0.00 0.00 56 1017.4
20260503185004 60 177 4.3 8.7 0.00 0.00 0.00 55 1017.4
20260503184803 60 176 3.5 8.7 0.00 0.00 0.00 55 1017.4
20260503184603 61 176 2.6 7.8 0.00 0.00 0.00 53 1017.8
20260503184403 61 175 2.6 7.8 0.00 0.00 0.00 53 1017.8
20260503184203 61 173 1.7 6.1 0.00 0.00 0.00 54 1017.8
20260503184003 60 171 2.6 6.1 0.00 0.00 0.00 56 1017.7
20260503183804 60 170 2.6 7.0 0.00 0.00 0.00 55 1017.7
20260503183603 60 168 2.6 9.6 0.00 0.00 0.00 57 1017.7
20260503183403 60 168 2.6 9.6 0.00 0.00 0.00 58 1017.7
20260503183203 59 169 3.5 9.6 0.00 0.00 0.00 56 1017.7
20260503183003 59 166 3.5 9.6 0.00 0.00 0.00 56 1017.7
20260503182803 59 165 3.5 9.6 0.00 0.00 0.00 56 1017.7
20260503182604 60 165 3.5 7.0 0.00 0.00 0.00 54 1017.7
20260503182403 60 160 3.5 7.0 0.00 0.00 0.00 57 1017.7
20260503182203 59 157 3.5 7.8 0.00 0.00 0.00 57 1017.7
20260503182004 59 154 3.5 7.8 0.00 0.00 0.00 58 1017.7
20260503181803 58 154 4.3 8.7 0.00 0.00 0.00 57 1017.7
20260503181603 58 151 5.2 13.0 0.00 0.00 0.00 58 1017.8
20260503181403 58 151 5.2 13.0 0.00 0.00 0.00 56 1017.8
20260503181204 58 155 5.2 13.0 0.00 0.00 0.00 57 1017.8
20260503181004 58 163 5.2 13.0 0.00 0.00 0.00 56 1017.9
20260503180803 58 165 4.3 13.0 0.00 0.00 0.00 57 1017.9
20260503180603 58 177 3.5 8.7 0.00 0.00 0.00 57 1017.9
20260503180403 59 184 3.5 8.7 0.00 0.00 0.00 58 1017.9
20260503180203 59 187 2.6 7.8 0.00 0.00 0.00 55 1018.0
20260503180003 59 187 2.6 7.8 0.00 0.00 0.00 58 1018.0
20260503175804 59 187 3.5 7.8 0.00 0.00 0.00 58 1018.0
20260503175604 58 187 3.5 7.0 0.00 0.00 0.00 60 1018.0
20260503175403 58 187 4.3 9.6 0.00 0.00 0.00 58 1018.0
20260503175203 58 186 4.3 9.6 0.00 0.00 0.00 58 1018.0
20260503175003 58 187 5.2 9.6 0.00 0.00 0.00 58 1018.0
20260503174803 58 190 5.2 9.6 0.00 0.00 0.00 58 1018.0
20260503174604 58 191 5.2 9.6 0.00 0.00 0.00 58 1018.2
20260503174404 58 193 5.2 9.6 0.00 0.00 0.00 62 1018.2
20260503174203 58 194 5.2 9.6 0.00 0.00 0.00 57 1018.2
20260503174003 58 194 5.2 9.6 0.00 0.00 0.00 59 1018.2
20260503173803 58 189 4.3 9.6 0.00 0.00 0.00 58 1018.2
20260503173603 58 184 5.2 9.6 0.00 0.00 0.00 57 1018.2
20260503173403 58 182 5.2 9.6 0.00 0.00 0.00 57 1018.2
20260503173204 58 177 4.3 9.6 0.00 0.00 0.00 59 1018.4
20260503173004 58 176 4.3 9.6 0.00 0.00 0.00 59 1018.4
20260503172803 58 176 4.3 9.6 0.00 0.00 0.00 57 1018.4
20260503172603 58 178 4.3 8.7 0.00 0.00 0.00 55 1018.4
20260503172403 59 175 3.5 8.7 0.00 0.00 0.00 54 1018.4
20260503172203 59 173 2.6 7.0 0.00 0.00 0.00 56 1018.4
20260503172004 59 173 1.7 7.0 0.00 0.00 0.00 56 1018.4
20260503171804 59 173 2.6 7.0 0.00 0.00 0.00 56 1018.4
20260503171603 59 173 1.7 5.2 0.00 0.00 0.00 55 1018.8
20260503171403 59 173 1.7 3.5 0.00 0.00 0.00 55 1018.8
20260503171203 58 173 0.9 6.1 0.00 0.00 0.00 55 1018.8
20260503171003 58 173 1.7 7.8 0.00 0.00 0.00 57 1018.8
20260503170803 58 171 1.7 7.8 0.00 0.00 0.00 61 1018.7
20260503170604 57 170 1.7 7.8 0.00 0.00 0.00 61 1018.7
20260503170403 56 169 1.7 7.8 0.00 0.00 0.00 59 1018.7
20260503170203 56 166 2.6 8.7 0.00 0.00 0.00 60 1018.8
20260503160203 55 190 3.5 7.0 0.00 0.00 0.00 57 1019.4
20260503151003 52 135 2.6 7.0 0.00 0.00 0.00 63 1019.4
20260503150803 52 174 1.7 7.0 0.00 0.00 0.00 64 1019.4
20260503150604 52 177 2.6 7.0 0.00 0.00 0.00 64 1019.4
20260503150403 52 171 2.6 7.0 0.00 0.00 0.00 63 1019.4
20260503150203 52 160 2.6 7.0 0.00 0.00 0.00 64 1019.7
20260503140204 49 181 5.2 10.4 0.00 0.00 0.00 72 1019.4
20260503131404 49 163 2.6 7.0 0.00 0.00 0.00 69 1019.2
20260503131203 49 162 3.5 7.0 0.00 0.00 0.00 70 1019.2
20260503131003 49 160 3.5 7.0 0.00 0.00 0.00 71 1019.2
20260503130803 49 162 2.6 7.0 0.00 0.00 0.00 69 1019.2
20260503130603 49 164 2.6 7.0 0.00 0.00 0.00 71 1019.2
20260503130404 49 165 2.6 5.2 0.00 0.00 0.00 71 1019.2
20260503130204 49 164 2.6 5.2 0.00 0.00 0.00 70 1018.9
20260503120203 45 57 0.9 3.5 0.00 0.00 0.00 78 1018.7
20260503110803 41 51 1.7 5.2 0.00 0.00 0.00 87 1017.7
20260503110604 41 48 2.6 5.2 0.00 0.00 0.00 88 1017.7
20260503110404 41 50 2.6 6.1 0.00 0.00 0.00 89 1017.7
20260503110203 41 51 2.6 6.1 0.00 0.00 0.00 89 1017.7
20260503100204 41 56 3.5 6.1 0.00 0.00 0.00 91 1017.1
20260503090404 42 45 4.3 7.8 0.00 0.00 0.00 89 1017.0
20260503090204 42 46 4.3 7.8 0.00 0.00 0.00 89 1016.9
20260503081604 42 46 3.5 7.0 0.00 0.00 0.00 88 1016.4
20260503081404 42 44 3.5 6.1 0.00 0.00 0.00 88 1016.4
20260503081204 42 40 2.6 6.1 0.00 0.00 0.00 88 1016.4
20260503081003 43 40 2.6 6.1 0.00 0.00 0.00 88 1016.4
20260503080804 43 39 2.6 4.3 0.00 0.00 0.00 88 1016.4
20260503080603 43 39 2.6 4.3 0.00 0.00 0.00 88 1016.4
20260503080404 43 42 2.6 5.2 0.00 0.00 0.00 88 1016.4
20260503080204 43 42 2.6 5.2 0.00 0.00 0.00 88 1016.6
20260503072804 43 51 2.6 5.2 0.00 0.00 0.00 87 1016.6
20260503072604 43 49 2.6 5.2 0.00 0.00 0.00 87 1016.6
20260503072404 43 43 2.6 5.2 0.00 0.00 0.00 87 1016.6
20260503072204 43 43 2.6 5.2 0.00 0.00 0.00 87 1016.6
20260503072003 43 43 2.6 5.2 0.00 0.00 0.00 87 1016.6
20260503071804 43 39 2.6 5.2 0.00 0.00 0.00 87 1016.6
20260503071604 43 37 3.5 8.7 0.00 0.00 0.00 87 1016.4
20260503071404 43 41 3.5 8.7 0.00 0.00 0.00 87 1016.4
20260503071204 43 39 2.6 8.7 0.00 0.00 0.00 87 1016.4
20260503071003 43 37 2.6 8.7 0.00 0.00 0.00 87 1016.4
20260503070804 43 42 2.6 8.7 0.00 0.00 0.00 87 1016.4
20260503070604 43 47 2.6 5.2 0.00 0.00 0.00 87 1016.4
20260503070404 43 50 2.6 5.2 0.00 0.00 0.00 87 1016.4
20260503070203 43 50 3.5 6.1 0.00 0.00 0.00 87 1016.0
20260503060204 44 48 1.7 6.1 0.00 0.00 0.00 88 1016.2
20260503055003 44 38 1.7 5.2 0.00 0.00 0.00 87 1016.2
20260503054803 44 42 2.6 6.1 0.00 0.00 0.00 87 1016.2
20260503054604 44 48 2.6 6.1 0.00 0.00 0.00 87 1016.2
20260503054404 44 55 3.5 6.1 0.00 0.00 0.00 87 1016.2
20260503054204 44 57 3.5 6.1 0.00 0.00 0.00 87 1016.2
20260503054005 44 57 3.5 6.1 0.00 0.00 0.00 87 1016.2
20260503053803 44 56 3.5 6.1 0.00 0.00 0.00 87 1016.2
20260503053604 44 57 3.5 6.1 0.00 0.00 0.00 87 1016.2
20260503053404 44 53 3.5 6.1 0.00 0.00 0.00 87 1016.2
20260503053204 44 51 3.5 7.8 0.00 0.00 0.00 87 1016.1
20260503053004 44 50 3.5 7.8 0.00 0.00 0.00 87 1016.1
20260503052803 44 50 3.5 7.8 0.00 0.00 0.00 87 1016.1
20260503052603 44 47 3.5 7.8 0.00 0.00 0.00 87 1016.1
20260503052404 44 48 3.5 7.8 0.00 0.00 0.00 87 1016.1
20260503052203 44 46 3.5 7.0 0.00 0.00 0.00 87 1016.1
20260503052003 44 49 3.5 7.0 0.00 0.00 0.00 87 1016.1
20260503051804 44 49 3.5 5.2 0.00 0.00 0.00 87 1016.1
20260503051603 44 51 2.6 5.2 0.00 0.00 0.00 87 1015.9
20260503051404 44 51 2.6 5.2 0.00 0.00 0.00 87 1015.9
20260503051204 45 53 2.6 5.2 0.00 0.00 0.00 87 1015.9
20260503051004 44 52 2.6 5.2 0.00 0.00 0.00 87 1015.9
20260503050804 45 51 2.6 5.2 0.00 0.00 0.00 87 1015.9
20260503050604 45 51 2.6 6.1 0.00 0.00 0.00 87 1015.9
20260503050403 45 50 3.5 6.1 0.00 0.00 0.00 87 1015.9
20260503050203 45 51 3.5 6.1 0.00 0.00 0.00 87 1016.0
20260503050005 45 50 3.5 6.1 0.00 0.00 0.00 87 1016.0
20260503045804 45 52 3.5 6.1 0.00 0.00 0.00 87 1016.0
20260503045603 45 50 3.5 5.2 0.00 0.00 0.00 87 1016.0
20260503045404 45 50 3.5 5.2 0.00 0.00 0.00 86 1016.0
20260503045203 45 49 3.5 5.2 0.00 0.00 0.00 86 1016.0
20260503045004 45 49 3.5 6.1 0.00 0.00 0.00 86 1016.0
20260503044804 45 48 3.5 6.1 0.00 0.00 0.00 86 1016.0
20260503044604 45 50 3.5 6.1 0.00 0.00 0.00 86 1016.0
20260503044404 45 51 3.5 6.1 0.00 0.00 0.00 86 1016.0
20260503044204 45 51 2.6 6.1 0.00 0.00 0.00 86 1016.0
20260503044004 45 50 2.6 7.8 0.00 0.00 0.00 86 1016.0
20260503043804 45 54 2.6 7.8 0.00 0.00 0.00 85 1016.0
20260503043603 45 56 3.5 7.8 0.00 0.00 0.00 85 1016.0
20260503043404 45 56 3.5 7.8 0.00 0.00 0.00 85 1016.0
20260503043203 45 57 3.5 7.8 0.00 0.00 0.00 85 1016.0
20260503043004 45 60 3.5 7.8 0.00 0.00 0.00 85 1016.0
20260503042804 46 56 3.5 8.7 0.00 0.00 0.00 85 1016.0
20260503042603 46 55 3.5 8.7 0.00 0.00 0.00 85 1016.0
20260503042404 46 56 3.5 8.7 0.00 0.00 0.00 85 1016.0
20260503042204 46 55 3.5 8.7 0.00 0.00 0.00 85 1016.0